Regional Weather Roundup
Issued by NWS Green Bay, WI

Home | Current Version | Previous Version | Text Only | Print | Product List | Glossary On
Versions: 1 2 3 4 5 6 7 8 9 10 11 12 13 14 15 16 17 18 19 20 21 22 23 24 25 26 27 28 29 30 31 32 33 34 35 36 37 38 39 40 41 42 43 44 45 46 47 48 49 50
000
ASUS43 KGRB 301711
RWRGRB

NORTH-CENTRAL AND NORTHEAST WISCONSIN REGIONAL WEATHER ROUNDUP
NATIONAL WEATHER SERVICE GREEN BAY WI
1200 PM CDT TUE AUG 30 2016

WIZ005-009-010>012-018-019-301800-
NORTH CENTRAL WISCONSIN

CITY           SKY/WX    TMP DP  RH WIND       PRES   REMARKS
IRONWOOD       CLOUDY    70  61  73 N8        30.17S
MANITOWISH WTR CLOUDY    71  66  84 NW5       30.17S
ARBOR VITAE    CLOUDY    72  65  78 NW3       30.17S
EAGLE RIVER    PTSUNNY   71  66  83 W5        30.16F
LAND O LAKES   CLOUDY    71  64  76 N3        30.17F
RHINELANDER    PTSUNNY   72  66  81 W5        30.18S
PHILLIPS       PTSUNNY   73  65  77 N3        30.17S
ANTIGO         MOSUNNY   78  64  61 CALM      30.15F
TOMAHAWK       PTSUNNY   74  64  71 NW8       30.17S
MERRILL        MOSUNNY   76  67  71 CALM      30.15F
$$

WIZ013-073-301800-
NORTHEAST WISCONSIN

CITY           SKY/WX    TMP DP  RH WIND       PRES   REMARKS
IRON MOUNTAIN  CLOUDY    75  64  68 NW8       30.11F
MARINETTE      MOSUNNY  N/A N/A N/A MISG      30.09F
OCONTO         SUNNY     82  64  55 NW3       30.09F
$$

WIZ017-030-035>037-045-301800-
CENTRAL WISCONSIN

CITY           SKY/WX    TMP DP  RH WIND       PRES   REMARKS
MEDFORD          N/A     73  68  83 W8        30.16
WAUSAU         MOSUNNY   80  65  59 N8        30.13F
MOSINEE        MOSUNNY   79  64  61 NW6       30.16S
MARSHFIELD     MOSUNNY   81  63  54 NW6       30.15F
WISC RAPIDS    MOSUNNY   81  64  56 NW6       30.16S
STEVENS POINT  MOSUNNY   79  62  55 CALM      30.15F
WAUPACA        MOSUNNY   84  62  46 NW6       30.13S
SHAWANO        SUNNY     84  64  49 W3        30.11F
CLINTONVILLE   SUNNY     82  61  47 NW6       30.11F
WAUTOMA        MOSUNNY   82  65  56 N6        30.13
$$

WIZ038-039-048-051-301800-
FOX VALLEY

CITY           SKY/WX    TMP DP  RH WIND       PRES   REMARKS
NWS GREEN BAY  MOSUNNY   80  72  76 CALM      30.10F
APPLETON       MOSUNNY   81  63  54 CALM      30.11F
OSHKOSH        MOSUNNY   80  67  64 W7        30.11F
FOND DU LAC    MOSUNNY   83  65  54 VRB6      30.12F
$$

WIZ022-050-052-301800-
EAST CENTRAL WISCONSIN

CITY           SKY/WX    TMP DP  RH WIND       PRES   REMARKS
EPHRAIM        FAIR      79  69  71 W6        30.09F
WASHINGTON ISL NOT AVBL
STURGEON BAY   SUNNY     81  66  60 W3        30.10F
MANITOWOC      PTSUNNY   76  71  85 MISG      30.11F
SHEBOYGAN      CLOUDY    82  72  71 W3        30.10F
$$

LMZ563-521-522-541>543-301800-
LAKESHORE

STATION/POSITION TIME  TEMP    WIND        PRES    VSBY  WAVE
                       AIR SEA DIR/SP/G                  HT/PER
                 (UTC) (F)     (DEG/KT/KT) (MB)    (MI)  (FT/S)
SHEBOYGAN LKSHOR 1700   70     170/ 12/ 13 1018.7F
KEWAUNEE LKSHORE 1600   76     170/  3/  4 1019.1F
ALGOMA MARINA    1645          350/  4/  8   N/A
NORTHPORT PIER   1600   79     330/  2/  6 1018.6F
N MID LAKE BUOY  1650   71 72  250/  6/  6 1018.3S         1/ 4
SISTER BAY LKSHO 1607   81     280/  9/ 10   N/A
CHAMBERS ISLAND  1600   78     200/  5/  8 1019.0F
MENOMINEE LKSHOR 1600   77     140/  7/  8 1018.3F
$$




USA.gov is the U.S. government's official web portal to all federal, state and local government web resources and services.